CZ-2F R/B, 66264

Orbit data source: Space-Track

CZ-2F R/B, 66264 is space debris in LEO originally from a launch on Fri, 31 Oct 2025 UTC via a CHANG ZHENG 2F launch vehicle from the Jiuquan Satellite Launch Center, China (JSC). Debris objects in space refer to the collection of defunct objects orbiting the Earth. Examples of debris include non-operational satellites, rocket bodies, and fragments generated from explosions, collisions, or faulty payload assembly.

Not visible in the next 10 days
Identifier
66264, 2025-246B
Orbit
LEO
Country
Flag of CNCN / PRC
Related business
Manufacturer
CALT?
Mission
Spacecraft
Bus & Motor
CZ-2F, Unknown motor
Mass
5,500 kg wet, 5,500 kg dry
Launch date (UTC)
2025-10-31 (1 week ago)
Launch vehicle
CHANG ZHENG 2F
Launch site
Jiuquan Satellite Launch Center, China (JSC)
Object type
Payload
Rocket body
Debris
Shape & HBR
Unknown
Radar Cross Section
RCS unknown

Expand to show TLE details & history
Last TLE update: 9 hours ago

TLE from 9 hours ago
0 CZ-2F R/B
1 66264U 25246B   25312.03386678  .01579710  76534-5  58518-3 0  9997
2 66264  41.4607 224.2188 0072656 183.7237 176.3089 16.16768309  1194
Epoch: 2025-11-08T00:48Z
TLE epoch observation values (Epoch: 2025-11-08T00:48:46.089Z)
Latitude
-0.00001°
Longitude
164.55747°
Altitude
275.823 km
Speed
7.716 km/s
True Right ascension
14h 56m 52s
True Declination
0° 00' 00"
Sunlit
Object was in daylight at epoch
Visualization orbit readout
Latitude
Unknown
Longitude
Unknown
Altitude
Unknown
Speed
Unknown
Apparent Right ascension
Unknown
Apparent Declination
Unknown
Sunlit
N/A
Visualization observer readout
Local Sidereal Time
06:12:31
Azimuth
Unknown
Elevation
Unknown
Doppler factor
Unknown
Orbital elements
Apogee altitude
278.645 km
Perigee altitude
182.612 km
Semi-major axis
6,608.765 km
Eccentricity
0.00727
Inclination
41.4607°
RAAN
224.2188°
Arg. of periapsis
183.7237°
True anomaly
176.36202°
Mean anomaly
176.3089°
Eccentric anomaly
176.33551°
Mean motion
4.03983 °/min
Orbital period
89.11 mins
BSTAR
0.00058518
Loading maneuver chart data...
Computing Atmospheric mass density...
Loading historical data...
Loading historical data...
Loading historical data...
Loading historical data...
Loading historical data...
Loading historical data...
Loading historical data...
Other satellites on launch #246 in the year 2025 (2025-10-31 UTC)

Documentation

Showing up to 5 results
|